[[{"header":{"parameterUnit":"m.s-1","parameterCategory":2,"la1":30.2991,"la2":30.254,"lo1":-89.0895,"lo2":-89.0444,"dy":0.0017,"dx":0.0017,"nx":28,"ny":28,"refTime":"2024-05-16T03:00:00:Z","depth":"0","parameterNumber":2,"parameterNumberName":"U-component_of_CURRENTS"},"data":[0,0,0,0,0,0,0,0,0,0,0,0,0,0,0,0,0,0,0,0,0,0,0,0,0,0,0,0,0,0,0,0,0,0,0,0,0,0,0,0,0,0,0,0,0,0,0,0,0,0,0,0,0,0,0,0,0,0,-0.1773,-0.1773,0,-0.1756,-0.1756,-0.1755,-0.1734,-0.1734,-0.1734,-0.1734,-0.1635,-0.1632,-0.163,0,0,0,0,0,0,0,0,0,0,0,0,0,-0.1744,-0.1744,-0.1773,-0.1773,-0.1773,-0.1756,-0.1756,-0.1755,-0.1734,-0.1734,-0.1734,-0.1734,-0.1636,-0.1633,-0.163,0,0,0,0,0,0,0,0,0,0,0,0,0,-0.1742,-0.1744,-0.1773,-0.1762,-0.1762,-0.1756,-0.1756,-0.1755,-0.1734,-0.1734,-0.1734,-0.1734,-0.1637,-0.1633,-0.1629,-0.1608,0,0,-0.1617,-0.1616,0,0,0,0,0,0,0,0,-0.1742,-0.1743,-0.1764,-0.1763,-0.1762,-0.175,-0.1709,-0.1703,-0.1734,-0.1741,-0.1734,-0.1734,-0.1667,-0.1661,-0.1655,-0.1603,-0.1599,-0.1617,-0.1615,-0.1613,-0.1612,0,0,0,0,0,0,0,-0.1742,-0.1743,-0.1763,-0.1764,-0.1763,-0.1744,-0.1744,-0.1708,-0.1702,-0.1741,-0.174,-0.1743,-0.1666,-0.1659,-0.1653,-0.1597,-0.1617,-0.1614,-0.1611,-0.161,-0.1567,-0.1568,0,0,0,0,0,0,-0.1753,-0.1744,-0.1764,-0.1763,-0.1755,-0.1745,-0.1745,-0.1751,-0.1704,-0.1698,-0.1743,-0.1742,-0.1666,-0.1657,-0.1649,-0.1666,-0.1613,-0.161,-0.1607,-0.1566,-0.1567,-0.1568,0,0,0,0,0,0,-0.1752,-0.1755,-0.1765,-0.1755,-0.1755,-0.1746,-0.1754,-0.1751,-0.1748,-0.1707,-0.1699,-0.1744,-0.1665,-0.1654,-0.1636,-0.166,-0.1608,-0.1604,-0.1564,-0.1566,-0.1568,-0.1671,0,0,0,0,0,0,-0.1751,-0.1755,-0.1763,-0.1756,-0.1756,-0.1775,-0.1754,-0.1751,-0.1751,-0.175,-0.1704,-0.1695,-0.1664,-0.1642,-0.1632,-0.1654,-0.1601,-0.1563,-0.1565,-0.1567,-0.1666,-0.1676,-0.1684,0,0,0,0,0,-0.175,-0.1765,-0.1763,-0.1766,-0.1768,-0.1777,-0.1775,-0.1766,-0.1752,-0.176,-0.1733,-0.1697,-0.1649,-0.164,-0.1628,-0.1649,-0.1562,-0.1564,-0.1567,-0.1662,-0.1674,-0.1684,0,0,0,0,0,0,-0.1767,-0.1764,-0.1762,-0.1778,-0.1784,-0.1774,-0.1779,-0.177,-0.1755,-0.1751,-0.1705,-0.1695,-0.1688,-0.1653,-0.1645,-0.1644,-0.1601,-0.1601,-0.1677,-0.1688,-0.1697,-0.1716,-0.1598,0,0,0,0,0,-0.1773,-0.1774,-0.178,-0.1792,-0.1797,-0.1787,-0.1788,-0.1785,-0.1773,-0.1766,-0.1737,-0.1707,-0.1689,-0.1677,-0.165,-0.1644,-0.1628,-0.1652,-0.1661,-0.167,-0.1678,-0.1673,-0.1683,-0.1577,-0.1577,-0.1577,0,0,-0.1782,-0.1781,-0.1783,-0.1794,-0.1793,-0.1818,-0.1787,-0.1797,-0.1821,-0.1755,-0.1768,-0.1732,-0.1693,-0.1696,-0.169,-0.1671,-0.1696,-0.1673,-0.168,-0.1684,-0.1677,-0.1687,-0.1696,-0.1579,-0.1578,-0.1578,0,0,-0.1804,-0.1803,-0.1814,-0.1826,-0.1834,-0.1837,-0.1844,-0.1842,-0.1845,-0.1851,-0.1816,-0.1803,-0.1765,-0.1756,-0.1743,-0.1784,-0.1742,-0.1769,-0.1834,-0.183,-0.1839,-0.1846,-0.1864,-0.1872,-0.1778,-0.1779,-0.1779,0,-0.1821,-0.1836,-0.1822,-0.1846,-0.1864,-0.1852,-0.1886,-0.1892,-0.1887,-0.1891,-0.1869,-0.1836,-0.1801,-0.1814,-0.1833,-0.1806,-0.1799,-0.1797,-0.1843,-0.185,-0.1856,-0.1872,-0.188,-0.1784,-0.1783,-0.1783,-0.1782,0,-0.1851,-0.1873,-0.1884,-0.1911,-0.1931,-0.1955,-0.1973,-0.1984,-0.1979,-0.198,-0.1984,-0.1945,-0.1921,-0.1917,-0.1886,-0.1914,-0.1896,-0.1853,-0.1818,-0.1873,-0.1886,-0.1893,-0.1791,-0.1789,-0.1788,-0.1787,0,0,-0.1865,-0.1901,-0.1904,-0.1932,-0.1969,-0.1988,-0.2033,-0.2065,-0.2088,-0.2082,-0.2107,-0.2086,-0.2049,-0.2032,-0.1993,-0.2001,-0.2043,-0.1951,-0.1948,-0.1977,-0.2053,-0.2003,-0.2004,-0.2004,-0.2005,-0.2006,-0.2055,0,-0.1897,-0.1949,-0.1963,-0.2027,-0.206,-0.2076,-0.212,-0.2147,-0.2154,-0.2174,-0.2151,-0.2144,-0.2099,-0.2078,-0.2084,-0.2038,-0.206,-0.2035,-0.1989,-0.1988,-0.1942,-0.201,-0.1806,-0.1828,-0.2061,-0.2062,-0.2062,0,-0.1916,-0.1952,-0.2011,-0.2083,-0.21,-0.2136,-0.2191,-0.2227,-0.2255,-0.2258,-0.2254,-0.2221,-0.2224,-0.217,-0.2157,-0.2139,-0.2111,-0.2089,-0.2089,-0.2008,-0.1949,-0.1805,-0.183,-0.1783,-0.2071,-0.2071,-0.207,0,-0.1903,-0.1986,-0.2031,-0.2055,-0.2131,-0.2159,-0.2197,-0.2239,-0.2263,-0.2292,-0.2295,-0.2299,-0.2274,-0.2253,-0.2198,-0.2172,-0.2192,-0.2141,-0.2087,-0.2084,-0.1884,-0.1861,-0.1857,-0.2152,-0.2152,-0.2152,-0.2152,0,-0.1913,-0.1945,-0.2026,-0.2043,-0.2102,-0.2161,-0.2209,-0.2241,-0.2289,-0.2314,-0.2317,-0.2324,-0.2287,-0.228,-0.2241,-0.219,-0.2221,-0.2119,-0.2095,-0.1917,-0.1898,-0.1823,-0.1842,-0.2154,-0.2153,-0.2153,-0.2153,0,-0.1846,-0.1911,-0.1954,-0.2047,-0.2081,-0.2104,-0.219,-0.222,-0.2275,-0.2304,-0.2305,-0.2335,-0.2316,-0.2299,-0.227,-0.2225,-0.2135,-0.2172,-0.1983,-0.1935,-0.1817,-0.1849,-0.1861,-0.182,-0.2115,-0.2114,-0.2113,0,-0.1795,-0.1811,-0.1913,-0.1939,-0.1967,-0.2031,-0.2073,-0.2176,-0.2209,-0.23,-0.2304,-0.2318,-0.2275,-0.2248,-0.2167,-0.211,-0.2102,-0.1934,-0.1845,-0.1808,-0.1825,-0.1858,-0.1825,-0.1632,-0.1627,-0.1624,-0.1621,0,-0.1672,-0.1708,-0.1746,-0.1808,-0.1859,-0.1924,-0.1997,-0.2034,-0.2151,-0.2162,-0.2183,-0.216,-0.2142,-0.1972,-0.1935,-0.1884,-0.1842,-0.1856,-0.1839,-0.1483,-0.1492,-0.1438,-0.164,-0.1587,-0.159,-0.1592,-0.1594,-0.1596,-0.1542,-0.1542,-0.1597,-0.1644,-0.1715,-0.177,-0.1775,-0.1855,-0.1873,-0.1855,-0.1956,-0.1833,-0.1767,-0.1645,-0.1632,-0.1491,-0.1618,-0.1389,-0.1447,-0.1498,-0.1408,-0.1569,-0.1474,-0.1476,-0.1479,-0.1481,-0.1482,0,-0.1351,-0.1388,-0.1429,-0.1485,-0.1502,-0.1599,-0.1681,-0.165,-0.1604,-0.1588,-0.152,-0.1357,-0.1208,-0.1208,-0.1103,-0.1059,-0.1045,-0.1065,-0.1023,-0.1022,-0.1141,-0.1063,-0.0845,-0.0845,-0.0845,-0.0845,-0.0845,-0.0845,-0.1249,-0.1227,-0.1272,-0.1249,-0.1293,-0.1276,-0.1293,-0.1259,-0.1221,-0.1043,-0.0921,-0.0882,-0.0914,-0.0925,-0.0841,-0.0807,-0.083,-0.0792,-0.0935,-0.0955,-0.0988,-0.102,-0.0949,-0.071,-0.071,-0.0677,-0.0677,-0.0676]},{"header":{"parameterUnit":"m.s-1","parameterCategory":2,"la1":30.2991,"la2":30.254,"lo1":-89.0895,"lo2":-89.0444,"dy":0.0017,"dx":0.0017,"nx":28,"ny":28,"refTime":"2024-05-16T03:00:00:Z","depth":"0","parameterNumber":3,"parameterNumberName":"V-component_of_CURRENTS"},"data":[0,0,0,0,0,0,0,0,0,0,0,0,0,0,0,0,0,0,0,0,0,0,0,0,0,0,0,0,0,0,0,0,0,0,0,0,0,0,0,0,0,0,0,0,0,0,0,0,0,0,0,0,0,0,0,0,0,0,0.0183,0.0184,0,0.0234,0.0234,0.0235,0.0272,0.0272,0.0272,0.0273,0.0357,0.0359,0.0361,0,0,0,0,0,0,0,0,0,0,0,0,0,0.0144,0.0145,0.0183,0.0184,0.0184,0.0234,0.0235,0.0235,0.0272,0.0272,0.0272,0.0273,0.0356,0.0359,0.0361,0,0,0,0,0,0,0,0,0,0,0,0,0,0.0176,0.0145,0.0183,0.0208,0.021,0.0234,0.0235,0.0236,0.0272,0.0272,0.0273,0.0273,0.0355,0.0358,0.0361,0.0374,0,0,0.0371,0.0372,0,0,0,0,0,0,0,0,0.0174,0.0177,0.0203,0.0206,0.0209,0.0246,0.0252,0.0283,0.0272,0.025,0.0273,0.0273,0.0322,0.0328,0.0338,0.0378,0.0381,0.0371,0.0373,0.0374,0.0375,0,0,0,0,0,0,0,0.0171,0.0175,0.0204,0.0204,0.0207,0.0225,0.023,0.0258,0.0285,0.0252,0.0254,0.0258,0.0324,0.0335,0.034,0.0383,0.0371,0.0374,0.0376,0.0377,0.0447,0.0447,0,0,0,0,0,0,0.0161,0.0173,0.0203,0.0206,0.0191,0.0225,0.0231,0.0235,0.0284,0.0291,0.0258,0.0259,0.0329,0.0336,0.0343,0.0366,0.0374,0.0377,0.0379,0.0447,0.0447,0.0447,0,0,0,0,0,0,0.016,0.0164,0.0201,0.019,0.0196,0.0225,0.023,0.0235,0.0245,0.0288,0.0296,0.0261,0.033,0.0339,0.0368,0.0369,0.0378,0.0381,0.0447,0.0447,0.0447,0.0408,0,0,0,0,0,0,0.0159,0.0163,0.0161,0.0189,0.0196,0.0209,0.023,0.0236,0.0247,0.025,0.0294,0.0302,0.0331,0.0363,0.0371,0.0374,0.0384,0.0447,0.0447,0.0447,0.0409,0.0407,0.0405,0,0,0,0,0,0.0157,0.015,0.0161,0.0164,0.0193,0.0208,0.0213,0.0237,0.0246,0.0247,0.028,0.0301,0.0369,0.0365,0.0375,0.0378,0.0447,0.0447,0.0447,0.0411,0.0407,0.0405,0,0,0,0,0,0,0.0131,0.0154,0.0166,0.0166,0.0184,0.0214,0.0214,0.0232,0.0258,0.0261,0.0302,0.0313,0.0339,0.0363,0.0358,0.0399,0.0411,0.0413,0.038,0.0378,0.0375,0.0363,0.0386,0,0,0,0,0,0.0124,0.0125,0.0152,0.015,0.0157,0.0185,0.0194,0.021,0.0236,0.0248,0.028,0.0314,0.0346,0.0364,0.0394,0.0416,0.0425,0.0424,0.0422,0.0419,0.0416,0.0429,0.0427,0.0447,0.0447,0.0447,0,0,0.0114,0.0125,0.0126,0.0145,0.016,0.0166,0.0191,0.02,0.021,0.0253,0.0275,0.0306,0.035,0.0376,0.0389,0.0396,0.0417,0.042,0.0417,0.0415,0.0428,0.0426,0.0424,0.0448,0.0448,0.0448,0,0,0.0088,0.0103,0.0094,0.0108,0.0126,0.0146,0.0146,0.0176,0.0193,0.0217,0.0252,0.0284,0.0328,0.0362,0.0385,0.0387,0.0403,0.0395,0.0376,0.0388,0.0386,0.0385,0.0385,0.0384,0.0395,0.0395,0.0395,0,0.0074,0.007,0.0093,0.009,0.0098,0.0134,0.013,0.0155,0.0191,0.0203,0.0217,0.0284,0.0323,0.036,0.0364,0.0382,0.0383,0.0382,0.0384,0.0383,0.0382,0.0382,0.0381,0.0393,0.0393,0.0394,0.0394,0,0.0046,0.0044,0.0038,0.005,0.0062,0.0063,0.01,0.0113,0.0138,0.0166,0.0201,0.0255,0.0292,0.0314,0.0343,0.036,0.036,0.0377,0.0387,0.0377,0.0378,0.0378,0.039,0.0391,0.0392,0.0392,0,0,0.0011,0.0016,0.0014,0.0009,0.004,0.0042,0.0062,0.0086,0.0083,0.0138,0.0144,0.0218,0.0242,0.027,0.0311,0.0333,0.0333,0.0348,0.035,0.0341,0.0344,0.0372,0.0374,0.0344,0.0344,0.0344,0.0343,0,-0.002,-0.0044,-0.0024,-0.0039,-0.0047,-0.0008,-0.0,0.0029,0.0057,0.0073,0.0145,0.0168,0.0228,0.0237,0.0272,0.0321,0.0332,0.0331,0.0361,0.0362,0.0383,0.0375,0.0406,0.041,0.0343,0.0343,0.0343,0,-0.0051,-0.0065,-0.0088,-0.0095,-0.0095,-0.0093,-0.0086,-0.0072,-0.0029,-0.0007,0.004,0.0084,0.0146,0.0183,0.0264,0.0256,0.0291,0.0329,0.0329,0.037,0.039,0.0413,0.0413,0.0514,0.0343,0.0343,0.0343,0,-0.0093,-0.0109,-0.0133,-0.0132,-0.0128,-0.0133,-0.0126,-0.0098,-0.0102,-0.0058,-0.0065,0.002,0.005,0.0121,0.0218,0.0228,0.0291,0.0313,0.0368,0.037,0.041,0.0416,0.0508,0.0344,0.0344,0.0344,0.0344,0,-0.0126,-0.0146,-0.0159,-0.0171,-0.0211,-0.0182,-0.0215,-0.0195,-0.0181,-0.0198,-0.0111,-0.0106,0.0032,0.0092,0.0182,0.0281,0.0263,0.0361,0.0374,0.0398,0.0402,0.0505,0.0541,0.0344,0.0344,0.0344,0.0344,0,-0.0151,-0.0162,-0.0196,-0.0216,-0.0229,-0.0252,-0.0277,-0.0307,-0.0278,-0.0299,-0.029,-0.0204,-0.0107,0.0022,0.0137,0.0226,0.0379,0.0349,0.0367,0.0383,0.0542,0.0573,0.0644,0.0703,0.041,0.0411,0.0411,0,-0.016,-0.0181,-0.0235,-0.0278,-0.0287,-0.0324,-0.0363,-0.0351,-0.0381,-0.036,-0.0378,-0.0291,-0.0212,-0.0015,0.0165,0.0326,0.0398,0.042,0.0458,0.0555,0.0599,0.0611,0.0656,0.0489,0.049,0.0491,0.0492,0,-0.0175,-0.0197,-0.0231,-0.0324,-0.038,-0.0446,-0.049,-0.0526,-0.0517,-0.0519,-0.049,-0.042,-0.0205,0.0026,0.0244,0.0337,0.0501,0.0444,0.0545,0.0669,0.0687,0.0748,0.0475,0.05,0.0499,0.0499,0.0498,0.0498,-0.0187,-0.0222,-0.0285,-0.0368,-0.0451,-0.0544,-0.0585,-0.062,-0.0649,-0.0616,-0.0556,-0.0394,-0.007,0.0272,0.0375,0.0617,0.058,0.0688,0.0715,0.0716,0.079,0.0531,0.0576,0.0576,0.0576,0.0575,0.0575,0,-0.0202,-0.0251,-0.0331,-0.044,-0.0542,-0.0571,-0.066,-0.068,-0.0695,-0.0603,-0.0524,-0.0139,0.0162,0.0452,0.0781,0.0893,0.092,0.0937,0.0974,0.1006,0.0783,0.0809,0.0907,0.0906,0.0906,0.0906,0.0906,0.0906,-0.0218,-0.0288,-0.0332,-0.0491,-0.0572,-0.0677,-0.0719,-0.0724,-0.0659,-0.0465,-0.0223,-0.0018,0.0383,0.0845,0.1126,0.1142,0.1249,0.1214,0.127,0.1136,0.1116,0.1096,0.1131,0.1295,0.1295,0.1498,0.15,0.1501]}],[{"header":{"parameterUnit":"m.s-1","parameterCategory":2,"la1":30.2991,"la2":30.254,"lo1":-89.0895,"lo2":-89.0444,"dy":0.0017,"dx":0.0017,"nx":28,"ny":28,"refTime":"2024-05-16T03:00:00:Z","depth":"2","parameterNumber":2,"parameterNumberName":"U-component_of_CURRENTS"},"data":[0,0,0,0,0,0,0,0,0,0,0,0,0,0,0,0,0,0,0,0,0,0,0,0,0,0,0,0,0,0,0,0,0,0,0,0,0,0,0,0,0,0,0,0,0,0,0,0,0,0,0,0,0,0,0,0,0,0,-0.0959,-0.0959,0,-0.0973,-0.0973,-0.0973,-0.0969,-0.0969,-0.0969,-0.0969,-0.0962,-0.0962,-0.0962,0,0,0,0,0,0,0,0,0,0,0,0,0,-0.0928,-0.0929,-0.0959,-0.0959,-0.0959,-0.0973,-0.0973,-0.0973,-0.0969,-0.0969,-0.0969,-0.0969,-0.0962,-0.0962,-0.0962,0,0,0,0,0,0,0,0,0,0,0,0,0,-0.094,-0.0929,-0.0958,-0.0961,-0.0961,-0.0973,-0.0973,-0.0973,-0.0969,-0.0969,-0.0969,-0.0969,-0.0962,-0.0962,-0.0962,-0.0963,0,0,-0.0961,-0.0961,0,0,0,0,0,0,0,0,-0.0939,-0.094,-0.096,-0.0961,-0.0961,-0.0971,-0.096,-0.0969,-0.0969,-0.0964,-0.0969,-0.0969,-0.0965,-0.0964,-0.0964,-0.0962,-0.0962,-0.0961,-0.0961,-0.0961,-0.0961,0,0,0,0,0,0,0,-0.0938,-0.094,-0.0962,-0.0961,-0.0961,-0.0961,-0.0963,-0.0961,-0.0962,-0.0964,-0.0964,-0.097,-0.0965,-0.0964,-0.0964,-0.0962,-0.0961,-0.0961,-0.0961,-0.0961,-0.0924,-0.0923,0,0,0,0,0,0,-0.0941,-0.0939,-0.0961,-0.0962,-0.0952,-0.0962,-0.0963,-0.0966,-0.0963,-0.0963,-0.097,-0.097,-0.0965,-0.0964,-0.0964,-0.095,-0.0961,-0.0961,-0.0961,-0.0925,-0.0924,-0.0923,0,0,0,0,0,0,-0.0941,-0.0943,-0.0961,-0.0953,-0.0956,-0.0963,-0.0966,-0.0967,-0.0979,-0.0968,-0.0967,-0.0983,-0.0965,-0.0964,-0.0963,-0.095,-0.0961,-0.0961,-0.0926,-0.0925,-0.0923,-0.0932,0,0,0,0,0,0,-0.094,-0.0943,-0.095,-0.0953,-0.0956,-0.0975,-0.0966,-0.0967,-0.0982,-0.0982,-0.0979,-0.0977,-0.0965,-0.0964,-0.0963,-0.095,-0.0961,-0.0927,-0.0925,-0.0924,-0.0933,-0.0931,-0.093,0,0,0,0,0,-0.0938,-0.095,-0.095,-0.0953,-0.0964,-0.0976,-0.0978,-0.0981,-0.0983,-0.0991,-0.0982,-0.0978,-0.0952,-0.0964,-0.0963,-0.095,-0.0928,-0.0926,-0.0924,-0.0934,-0.0931,-0.093,0,0,0,0,0,0,-0.0944,-0.0951,-0.0951,-0.0964,-0.0973,-0.0977,-0.0988,-0.0991,-0.0991,-0.0992,-0.098,-0.0978,-0.0964,-0.0959,-0.0972,-0.0931,-0.0934,-0.0932,-0.0941,-0.0939,-0.0938,-0.0954,-0.096,0,0,0,0,0,-0.0947,-0.0954,-0.0963,-0.0974,-0.0982,-0.0987,-0.0995,-0.0998,-0.0998,-0.0999,-0.0995,-0.0979,-0.0954,-0.0951,-0.0933,-0.0927,-0.0973,-0.0912,-0.0911,-0.091,-0.092,-0.099,-0.0997,-0.0916,-0.0916,-0.0916,0,0,-0.095,-0.0958,-0.0961,-0.0975,-0.0982,-0.0986,-0.0992,-0.1008,-0.1001,-0.0998,-0.0993,-0.0978,-0.095,-0.0929,-0.0922,-0.0927,-0.0957,-0.0907,-0.0906,-0.0918,-0.0989,-0.0998,-0.1005,-0.0915,-0.0915,-0.0916,0,0,-0.0962,-0.097,-0.098,-0.0987,-0.1003,-0.0999,-0.1008,-0.1018,-0.1015,-0.1011,-0.0991,-0.0979,-0.0956,-0.093,-0.0912,-0.0895,-0.0944,-0.0881,-0.0894,-0.0961,-0.097,-0.0978,-0.1059,-0.1074,-0.0884,-0.0884,-0.0884,0,-0.0969,-0.0976,-0.0986,-0.0997,-0.1,-0.1006,-0.1012,-0.1006,-0.1011,-0.102,-0.1008,-0.0986,-0.0951,-0.0933,-0.0903,-0.0893,-0.0954,-0.0905,-0.0964,-0.0973,-0.0981,-0.1062,-0.1079,-0.0884,-0.0884,-0.0884,-0.0884,0,-0.0982,-0.0989,-0.0998,-0.1003,-0.1008,-0.1016,-0.101,-0.1019,-0.1015,-0.1018,-0.1017,-0.0983,-0.0978,-0.0945,-0.0909,-0.0932,-0.0966,-0.0956,-0.0979,-0.099,-0.1074,-0.1091,-0.0885,-0.0884,-0.0884,-0.0884,0,0,-0.0995,-0.1003,-0.1007,-0.1009,-0.1011,-0.1018,-0.1012,-0.102,-0.1054,-0.1032,-0.108,-0.0989,-0.1004,-0.0982,-0.0952,-0.0983,-0.1064,-0.099,-0.0993,-0.1089,-0.1248,-0.1096,-0.1101,-0.1084,-0.1087,-0.1089,-0.1289,0,-0.1002,-0.101,-0.1014,-0.1017,-0.1019,-0.1025,-0.1036,-0.1046,-0.106,-0.1112,-0.1081,-0.1099,-0.1008,-0.1022,-0.1033,-0.1063,-0.1109,-0.1012,-0.1205,-0.1211,-0.1091,-0.1114,-0.0984,-0.1135,-0.1306,-0.1309,-0.1311,0,-0.1013,-0.1014,-0.1012,-0.1036,-0.1044,-0.1045,-0.1086,-0.1094,-0.1153,-0.1187,-0.1204,-0.1209,-0.1213,-0.1158,-0.1226,-0.118,-0.1208,-0.1232,-0.1241,-0.1109,-0.109,-0.1147,-0.1161,-0.1341,-0.1339,-0.1336,-0.1334,0,-0.1003,-0.1018,-0.1011,-0.1012,-0.1037,-0.1048,-0.1059,-0.1113,-0.1156,-0.1237,-0.1313,-0.1329,-0.1366,-0.1393,-0.1369,-0.1335,-0.1488,-0.1456,-0.1358,-0.135,-0.1277,-0.1255,-0.1537,-0.1536,-0.1536,-0.1535,-0.1535,0,-0.1,-0.1002,-0.1007,-0.1002,-0.103,-0.1046,-0.1106,-0.1141,-0.1237,-0.1311,-0.1342,-0.1401,-0.143,-0.149,-0.1467,-0.1452,-0.1566,-0.1371,-0.1386,-0.127,-0.1247,-0.1443,-0.143,-0.1543,-0.1541,-0.154,-0.1539,0,-0.0981,-0.0987,-0.0985,-0.1005,-0.1019,-0.1028,-0.1109,-0.118,-0.1266,-0.1374,-0.1405,-0.15,-0.1531,-0.1557,-0.1629,-0.1569,-0.1579,-0.1552,-0.1405,-0.1392,-0.1389,-0.1374,-0.149,-0.1486,-0.1483,-0.148,-0.1478,0,-0.0966,-0.0956,-0.097,-0.0989,-0.0992,-0.1028,-0.1089,-0.1172,-0.1247,-0.1397,-0.1455,-0.153,-0.1498,-0.155,-0.1493,-0.1472,-0.152,-0.1366,-0.1219,-0.1379,-0.1383,-0.1373,-0.1362,-0.1167,-0.1162,-0.1158,-0.1155,0,-0.0923,-0.0927,-0.0927,-0.0956,-0.0997,-0.1054,-0.112,-0.1175,-0.1291,-0.1347,-0.1385,-0.1357,-0.1395,-0.1263,-0.1255,-0.122,-0.1341,-0.1279,-0.1555,-0.114,-0.1074,-0.1076,-0.1078,-0.1121,-0.1125,-0.1127,-0.1129,-0.113,-0.0885,-0.0875,-0.0878,-0.0904,-0.0972,-0.1023,-0.1026,-0.1096,-0.1119,-0.1157,-0.1221,-0.1145,-0.1174,-0.1002,-0.0972,-0.0984,-0.1055,-0.1028,-0.1042,-0.106,-0.0927,-0.0851,-0.0838,-0.084,-0.0841,-0.0842,-0.0843,0,-0.0803,-0.0808,-0.0835,-0.0852,-0.09,-0.0954,-0.1023,-0.0987,-0.0926,-0.0979,-0.0928,-0.0809,-0.0705,-0.0753,-0.0686,-0.0669,-0.0698,-0.066,-0.0702,-0.0734,-0.0763,-0.0617,-0.0446,-0.0445,-0.0445,-0.0444,0,0,-0.0758,-0.0734,-0.0739,-0.0749,-0.0789,-0.0796,-0.0797,-0.0717,-0.0705,-0.0612,-0.0583,-0.0632,-0.0675,-0.0546,-0.0528,-0.0472,-0.0601,-0.0448,-0.0762,-0.084,-0.0867,-0.0963,-0.077,0,0,0,0,0]},{"header":{"parameterUnit":"m.s-1","parameterCategory":2,"la1":30.2991,"la2":30.254,"lo1":-89.0895,"lo2":-89.0444,"dy":0.0017,"dx":0.0017,"nx":28,"ny":28,"refTime":"2024-05-16T03:00:00:Z","depth":"2","parameterNumber":3,"parameterNumberName":"V-component_of_CURRENTS"},"data":[0,0,0,0,0,0,0,0,0,0,0,0,0,0,0,0,0,0,0,0,0,0,0,0,0,0,0,0,0,0,0,0,0,0,0,0,0,0,0,0,0,0,0,0,0,0,0,0,0,0,0,0,0,0,0,0,0,0,-0.0422,-0.0421,0,-0.0322,-0.0321,-0.0319,-0.0285,-0.0286,-0.0287,-0.0287,-0.0189,-0.0186,-0.0183,0,0,0,0,0,0,0,0,0,0,0,0,0,-0.0476,-0.0475,-0.0422,-0.0421,-0.042,-0.0322,-0.0321,-0.0319,-0.0285,-0.0286,-0.0287,-0.0288,-0.019,-0.0186,-0.0182,0,0,0,0,0,0,0,0,0,0,0,0,0,-0.0419,-0.0475,-0.0422,-0.0393,-0.039,-0.0323,-0.0321,-0.0318,-0.0285,-0.0286,-0.0287,-0.0288,-0.0191,-0.0187,-0.0182,-0.0133,0,0,-0.0167,-0.0165,0,0,0,0,0,0,0,0,-0.0423,-0.0417,-0.0398,-0.0395,-0.0391,-0.0319,-0.0304,-0.0257,-0.0285,-0.0322,-0.0287,-0.0288,-0.0234,-0.0226,-0.0201,-0.0128,-0.0124,-0.0167,-0.0164,-0.0162,-0.016,0,0,0,0,0,0,0,-0.0427,-0.0421,-0.038,-0.0397,-0.0393,-0.0349,-0.0342,-0.0294,-0.0272,-0.0319,-0.0317,-0.031,-0.0232,-0.0205,-0.0198,-0.0122,-0.0167,-0.0163,-0.016,-0.0158,-0.0011,-0.001,0,0,0,0,0,0,-0.0449,-0.0425,-0.0383,-0.0377,-0.0413,-0.0348,-0.034,-0.0339,-0.0272,-0.0263,-0.0309,-0.0308,-0.0213,-0.0204,-0.0195,-0.0138,-0.0162,-0.0157,-0.0154,-0.0012,-0.0011,-0.001,0,0,0,0,0,0,-0.0451,-0.0447,-0.0387,-0.04,-0.039,-0.0347,-0.0345,-0.0337,-0.0311,-0.0265,-0.0256,-0.0293,-0.0214,-0.0202,-0.0146,-0.0134,-0.0155,-0.0151,-0.0013,-0.0012,-0.001,-0.0021,0,0,0,0,0,0,-0.0453,-0.0448,-0.0447,-0.0402,-0.039,-0.034,-0.0344,-0.0334,-0.0307,-0.0305,-0.0248,-0.024,-0.0213,-0.0153,-0.0141,-0.0128,-0.0147,-0.0014,-0.0012,-0.0011,-0.0022,-0.002,-0.0018,0,0,0,0,0,-0.0455,-0.0452,-0.0448,-0.0443,-0.0394,-0.0339,-0.0327,-0.0298,-0.0305,-0.0281,-0.0248,-0.0241,-0.0133,-0.0148,-0.0134,-0.0119,-0.0015,-0.0013,-0.0011,-0.0022,-0.002,-0.0018,0,0,0,0,0,0,-0.0469,-0.0447,-0.0442,-0.0431,-0.0387,-0.0334,-0.0313,-0.0296,-0.025,-0.0253,-0.0218,-0.0206,-0.0155,-0.0131,-0.0148,-0.0071,-0.0077,-0.0071,-0.009,-0.0088,-0.0086,-0.0096,-0.0143,0,0,0,0,0,-0.0475,-0.047,-0.0431,-0.0418,-0.0401,-0.0357,-0.0332,-0.0311,-0.0268,-0.025,-0.0209,-0.0171,-0.0132,-0.0107,-0.0064,-0.0013,0.0007,0.0002,0.0004,0.0005,0.0007,0.0037,0.0041,-0.0002,-0.0002,-0.0002,0,0,-0.0476,-0.0464,-0.0459,-0.0421,-0.0388,-0.0343,-0.0343,-0.0303,-0.0265,-0.0245,-0.0182,-0.0158,-0.0117,-0.0065,-0.0041,-0.0045,0.0033,0.0008,0.0009,0.001,0.004,0.0044,0.0047,-0.0001,-0.0001,-0.0001,0,0,-0.0464,-0.0465,-0.0448,-0.0413,-0.0368,-0.0334,-0.0325,-0.0268,-0.0245,-0.0182,-0.0169,-0.0138,-0.0062,-0.0037,-0.0016,0.0024,0.0041,0.0034,0.0037,0.0066,0.0069,0.0072,0.012,0.0128,0.0034,0.0034,0.0034,0,-0.0459,-0.0441,-0.0429,-0.0394,-0.0364,-0.0332,-0.029,-0.0251,-0.0182,-0.0168,-0.0163,-0.008,-0.0048,-0.0004,0.0006,0.0028,0.005,0.0023,0.0066,0.007,0.0073,0.0121,0.013,0.0034,0.0034,0.0034,0.0034,0,-0.0427,-0.0406,-0.039,-0.0342,-0.0304,-0.0263,-0.0216,-0.0182,-0.0158,-0.0127,-0.0081,-0.0041,-0.0002,0.0012,0.0025,0.006,0.0072,0.0063,0.0055,0.0077,0.0127,0.0135,0.0033,0.0033,0.0033,0.0034,0,0,-0.041,-0.0376,-0.0366,-0.0346,-0.0277,-0.0245,-0.0189,-0.0135,-0.0122,-0.0063,-0.0037,0.002,0.0013,0.0037,0.0048,0.0073,0.012,0.0075,0.0076,0.0113,0.0198,0.0171,0.0178,0.0111,0.0112,0.0113,0.0229,0,-0.0375,-0.0334,-0.0313,-0.025,-0.0219,-0.0184,-0.0143,-0.0099,-0.0067,-0.0033,-0.0007,0.0023,0.0031,0.0032,0.0063,0.0102,0.014,0.0091,0.0181,0.0184,0.0148,0.0186,0.0171,0.0269,0.0238,0.0239,0.024,0,-0.033,-0.0313,-0.0269,-0.0232,-0.0217,-0.0178,-0.0134,-0.0094,-0.0051,-0.0036,-0.0007,0.0013,0.0061,0.0054,0.0146,0.0112,0.0157,0.0191,0.0195,0.0177,0.0172,0.0241,0.0286,0.0255,0.0254,0.0253,0.0252,0,-0.0327,-0.0273,-0.0251,-0.023,-0.0183,-0.0168,-0.0143,-0.0102,-0.0092,-0.0048,-0.0039,0.002,0.0047,0.0108,0.0182,0.0163,0.0287,0.0269,0.0297,0.0297,0.0307,0.0304,0.0339,0.0339,0.0339,0.0338,0.0338,0,-0.0292,-0.0265,-0.0259,-0.0242,-0.0225,-0.0188,-0.0175,-0.0147,-0.0123,-0.0113,-0.0056,-0.0028,0.0058,0.0136,0.0197,0.0282,0.0305,0.0311,0.0323,0.0305,0.0301,0.0298,0.0291,0.0343,0.0342,0.0341,0.034,0,-0.0277,-0.027,-0.0246,-0.0225,-0.0224,-0.0215,-0.0208,-0.0213,-0.0177,-0.0158,-0.0148,-0.0054,0.0041,0.0139,0.0255,0.0298,0.038,0.0405,0.0386,0.0392,0.0373,0.0365,0.0449,0.0448,0.0448,0.0448,0.0448,0,-0.0264,-0.0257,-0.0255,-0.0268,-0.026,-0.0257,-0.0272,-0.0246,-0.0249,-0.0173,-0.0165,-0.0063,-0.0003,0.0173,0.0277,0.0393,0.0397,0.0443,0.039,0.038,0.0384,0.0376,0.0368,0.0422,0.0422,0.0421,0.0421,0,-0.0244,-0.0256,-0.0256,-0.0295,-0.0313,-0.0328,-0.0336,-0.0345,-0.0311,-0.0283,-0.0215,-0.0158,0.0015,0.0143,0.0291,0.0352,0.0416,0.0439,0.0457,0.0371,0.0357,0.0359,0.0353,0.0419,0.042,0.042,0.042,0.042,-0.0246,-0.0258,-0.0293,-0.0324,-0.0357,-0.0395,-0.0411,-0.0413,-0.041,-0.0352,-0.0268,-0.0156,-0.0008,0.0187,0.0294,0.0401,0.0393,0.0422,0.0423,0.0423,0.0375,0.0358,0.0414,0.0414,0.0414,0.0415,0.0415,0,-0.0261,-0.0291,-0.0327,-0.0373,-0.0426,-0.0431,-0.0459,-0.0465,-0.0461,-0.0371,-0.0301,-0.0139,0.0013,0.0168,0.0325,0.0402,0.0403,0.0415,0.0413,0.0414,0.0415,0.0365,0.0403,0.0403,0.0403,0.0403,0,0,-0.0277,-0.0323,-0.0349,-0.0433,-0.0471,-0.0535,-0.0554,-0.0527,-0.0467,-0.0396,-0.0293,-0.015,0.0034,0.0146,0.0256,0.0338,0.0349,0.0338,0.0339,0.0324,0.0324,0.0411,0.0334,0,0,0,0,0]}],[{"header":{"parameterUnit":"m.s-1","parameterCategory":2,"la1":30.2991,"la2":30.254,"lo1":-89.0895,"lo2":-89.0444,"dy":0.0017,"dx":0.0017,"nx":28,"ny":28,"refTime":"2024-05-16T03:00:00:Z","depth":"4","parameterNumber":2,"parameterNumberName":"U-component_of_CURRENTS"},"data":[0,0,0,0,0,0,0,0,0,0,0,0,0,0,0,0,0,0,0,0,0,0,0,0,0,0,0,0,0,0,0,0,0,0,0,0,0,0,0,0,0,0,0,0,0,0,0,0,0,0,0,0,0,0,0,0,0,0,-0.0398,-0.0398,0,-0.0426,-0.0427,-0.0427,-0.0461,-0.0461,-0.0462,-0.0462,-0.052,-0.0521,-0.0522,0,0,0,0,0,0,0,0,0,0,0,0,0,-0.0354,-0.0355,-0.0398,-0.0398,-0.0398,-0.0426,-0.0427,-0.0427,-0.0461,-0.0461,-0.0462,-0.0463,-0.052,-0.0521,-0.0523,0,0,0,0,0,0,0,0,0,0,0,0,0,-0.0377,-0.0355,-0.0398,-0.0419,-0.0421,-0.0426,-0.0427,-0.0427,-0.0461,-0.0461,-0.0462,-0.0463,-0.052,-0.0521,-0.0523,-0.0517,0,0,-0.0528,-0.0528,0,0,0,0,0,0,0,0,-0.0376,-0.0379,-0.0415,-0.0417,-0.042,-0.0441,-0.0433,-0.0459,-0.046,-0.0445,-0.0462,-0.0463,-0.0496,-0.05,-0.0503,-0.052,-0.0522,-0.0528,-0.0529,-0.0529,-0.053,0,0,0,0,0,0,0,-0.0374,-0.0378,-0.0409,-0.0415,-0.0418,-0.0421,-0.0425,-0.0438,-0.0466,-0.0447,-0.0449,-0.0452,-0.0498,-0.0501,-0.0504,-0.0523,-0.0528,-0.0529,-0.053,-0.0531,-0.0655,-0.0658,0,0,0,0,0,0,-0.0371,-0.0376,-0.0408,-0.041,-0.0399,-0.0421,-0.0426,-0.0433,-0.0466,-0.0471,-0.0452,-0.0454,-0.0498,-0.0502,-0.0507,-0.0613,-0.0529,-0.0531,-0.0532,-0.0653,-0.0656,-0.0658,0,0,0,0,0,0,-0.037,-0.0374,-0.0407,-0.0393,-0.0398,-0.0421,-0.0429,-0.0433,-0.0461,-0.0469,-0.0475,-0.0478,-0.0499,-0.0504,-0.0558,-0.0611,-0.0532,-0.0533,-0.065,-0.0654,-0.0657,-0.0754,0,0,0,0,0,0,-0.0369,-0.0373,-0.0382,-0.0393,-0.0399,-0.0427,-0.0428,-0.0433,-0.046,-0.0464,-0.0493,-0.0498,-0.05,-0.0556,-0.056,-0.0612,-0.0534,-0.0647,-0.0652,-0.0656,-0.0748,-0.076,-0.0771,0,0,0,0,0,-0.0367,-0.0375,-0.0382,-0.0386,-0.0408,-0.0428,-0.0431,-0.0449,-0.0461,-0.0477,-0.0513,-0.0498,-0.0587,-0.0559,-0.0563,-0.0617,-0.0645,-0.0651,-0.0656,-0.0742,-0.0758,-0.0771,0,0,0,0,0,0,-0.0365,-0.0379,-0.0388,-0.0401,-0.0421,-0.0434,-0.0454,-0.0463,-0.05,-0.0519,-0.0524,-0.0532,-0.0602,-0.0593,-0.0562,-0.0666,-0.0615,-0.0621,-0.068,-0.0694,-0.0706,-0.0687,-0.0536,0,0,0,0,0,-0.0366,-0.0381,-0.0394,-0.0412,-0.0425,-0.0444,-0.0457,-0.0473,-0.0503,-0.052,-0.0551,-0.0586,-0.0622,-0.0645,-0.0673,-0.0722,-0.0687,-0.076,-0.0772,-0.0782,-0.0771,-0.0778,-0.0789,-0.0676,-0.0676,-0.0676,0,0,-0.0374,-0.0384,-0.0394,-0.0413,-0.0435,-0.0471,-0.0455,-0.0491,-0.054,-0.0521,-0.0613,-0.0629,-0.0645,-0.0713,-0.0743,-0.0715,-0.0796,-0.0789,-0.0797,-0.078,-0.0785,-0.0795,-0.0805,-0.0679,-0.0679,-0.0678,0,0,-0.0393,-0.0408,-0.0425,-0.0447,-0.048,-0.0503,-0.0519,-0.0557,-0.0596,-0.0658,-0.0677,-0.0726,-0.0772,-0.0808,-0.0824,-0.0912,-0.0859,-0.0925,-0.0969,-0.0978,-0.0986,-0.0993,-0.0957,-0.0961,-0.0929,-0.0929,-0.093,0,-0.0399,-0.0429,-0.0435,-0.0463,-0.0495,-0.0525,-0.0566,-0.061,-0.067,-0.0707,-0.0702,-0.0796,-0.0818,-0.0896,-0.0932,-0.094,-0.091,-0.0915,-0.0991,-0.0997,-0.1003,-0.0964,-0.0966,-0.0935,-0.0934,-0.0934,-0.0933,0,-0.0428,-0.0465,-0.0485,-0.0539,-0.0569,-0.0616,-0.0671,-0.0727,-0.0772,-0.081,-0.0896,-0.0924,-0.0962,-0.0998,-0.0988,-0.1057,-0.1011,-0.1005,-0.095,-0.1019,-0.0975,-0.0975,-0.0942,-0.094,-0.0939,-0.0938,0,0,-0.0418,-0.0489,-0.0502,-0.0537,-0.0618,-0.0642,-0.0741,-0.082,-0.0875,-0.0943,-0.0997,-0.1083,-0.1077,-0.1093,-0.1104,-0.1122,-0.1145,-0.1078,-0.1076,-0.1031,-0.1124,-0.1056,-0.1049,-0.1147,-0.1148,-0.1149,-0.1074,0,-0.0449,-0.0498,-0.0544,-0.063,-0.0665,-0.0734,-0.0811,-0.0888,-0.0953,-0.1017,-0.1065,-0.1123,-0.1123,-0.1134,-0.1157,-0.1141,-0.1151,-0.1163,-0.1071,-0.1067,-0.099,-0.105,-0.1152,-0.1073,-0.1073,-0.1073,-0.1073,0,-0.0464,-0.0497,-0.0575,-0.0659,-0.0684,-0.0761,-0.0871,-0.0945,-0.1047,-0.1081,-0.114,-0.1156,-0.1204,-0.1183,-0.1187,-0.1187,-0.1159,-0.1147,-0.1144,-0.1041,-0.1001,-0.0992,-0.1073,-0.1073,-0.1073,-0.1073,-0.1073,0,-0.0427,-0.052,-0.0586,-0.062,-0.0726,-0.0798,-0.0872,-0.0981,-0.1023,-0.1133,-0.1124,-0.12,-0.1183,-0.12,-0.1148,-0.1171,-0.1112,-0.1142,-0.1058,-0.105,-0.1087,-0.108,-0.1146,-0.1146,-0.1146,-0.1147,-0.1147,0,-0.0432,-0.0493,-0.0587,-0.0625,-0.0706,-0.0793,-0.0893,-0.0968,-0.1046,-0.1048,-0.1152,-0.1122,-0.118,-0.1139,-0.1139,-0.1068,-0.11,-0.1061,-0.1037,-0.1129,-0.1128,-0.1086,-0.108,-0.1144,-0.1144,-0.1145,-0.1145,0,-0.0401,-0.0474,-0.0534,-0.0645,-0.0698,-0.0755,-0.0878,-0.0903,-0.1006,-0.0995,-0.101,-0.1045,-0.1018,-0.104,-0.1031,-0.1012,-0.0994,-0.0959,-0.1011,-0.099,-0.0932,-0.0933,-0.0894,-0.0891,-0.0888,-0.0886,-0.0885,0,-0.039,-0.0423,-0.0514,-0.0548,-0.0628,-0.0729,-0.0764,-0.0879,-0.0862,-0.0909,-0.084,-0.0865,-0.0871,-0.0818,-0.0871,-0.0886,-0.0889,-0.086,-0.0962,-0.0931,-0.0911,-0.0915,-0.0919,-0.0881,-0.088,-0.088,-0.0879,0,-0.036,-0.0401,-0.0447,-0.0475,-0.0535,-0.0562,-0.0615,-0.061,-0.0671,-0.0727,-0.0697,-0.0743,-0.0701,-0.0761,-0.0757,-0.0772,-0.0888,-0.0837,-0.0844,-0.094,-0.0915,-0.0899,-0.0905,-0.0871,-0.0872,-0.0873,-0.0873,0,-0.0338,-0.0339,-0.037,-0.0412,-0.0438,-0.0406,-0.046,-0.0452,-0.0479,-0.0534,-0.0503,-0.0584,-0.064,-0.0692,-0.0682,-0.0706,-0.0746,-0.0756,-0.0768,-0.0778,-0.0785,-0.074,-0.0619,0,0,0,0,0,-0.0297,-0.03,-0.0298,-0.0316,-0.0309,-0.0318,-0.0338,-0.0374,-0.042,-0.0371,-0.0462,-0.0449,-0.0529,-0.0585,-0.06,-0.0635,-0.073,-0.0648,-0.0741,-0.0825,-0.0835,-0.0861,0,0,0,0,0,0,-0.0281,-0.0284,-0.0272,-0.0214,-0.0203,-0.0166,-0.0186,-0.0211,-0.021,-0.0289,-0.0345,-0.0413,-0.0501,-0.0512,-0.0586,-0.0599,-0.065,-0.0707,-0.0706,-0.082,-0.0829,-0.0836,-0.0866,0,0,0,0,0]},{"header":{"parameterUnit":"m.s-1","parameterCategory":2,"la1":30.2991,"la2":30.254,"lo1":-89.0895,"lo2":-89.0444,"dy":0.0017,"dx":0.0017,"nx":28,"ny":28,"refTime":"2024-05-16T03:00:00:Z","depth":"4","parameterNumber":3,"parameterNumberName":"V-component_of_CURRENTS"},"data":[0,0,0,0,0,0,0,0,0,0,0,0,0,0,0,0,0,0,0,0,0,0,0,0,0,0,0,0,0,0,0,0,0,0,0,0,0,0,0,0,0,0,0,0,0,0,0,0,0,0,0,0,0,0,0,0,0,0,-0.0045,-0.0045,0,-0.0044,-0.0044,-0.0044,-0.0015,-0.0014,-0.0014,-0.0013,0.0001,0.0001,0.0,0,0,0,0,0,0,0,0,0,0,0,0,0,-0.0058,-0.0058,-0.0045,-0.0045,-0.0045,-0.0044,-0.0044,-0.0044,-0.0015,-0.0014,-0.0013,-0.0013,0.0001,0.0001,0.0,0,0,0,0,0,0,0,0,0,0,0,0,0,-0.0054,-0.0058,-0.0045,-0.0031,-0.0029,-0.0044,-0.0044,-0.0044,-0.0015,-0.0014,-0.0013,-0.0012,0.0001,0.0001,0.0,-0.0026,0,0,-0.0001,-0.0001,0,0,0,0,0,0,0,0,-0.0055,-0.0054,-0.0033,-0.0032,-0.003,-0.0028,-0.0043,-0.0037,-0.0016,-0.0021,-0.0013,-0.0012,-0.0008,-0.0008,-0.0011,-0.0025,-0.0024,-0.0001,-0.0002,-0.0002,-0.0002,0,0,0,0,0,0,0,-0.0055,-0.0054,-0.0045,-0.0033,-0.0031,-0.0036,-0.0034,-0.0042,-0.0021,-0.002,-0.0018,-0.0018,-0.0007,-0.001,-0.001,-0.0024,-0.0001,-0.0002,-0.0002,-0.0002,0.0014,0.0014,0,0,0,0,0,0,-0.0054,-0.0054,-0.0045,-0.0045,-0.004,-0.0037,-0.0034,-0.003,-0.0021,-0.0019,-0.0019,-0.0017,-0.001,-0.001,-0.001,0.0032,-0.0002,-0.0002,-0.0003,0.0013,0.0014,0.0015,0,0,0,0,0,0,-0.0054,-0.0053,-0.0045,-0.005,-0.0049,-0.0037,-0.0033,-0.0031,-0.0022,-0.002,-0.0017,-0.0011,-0.0009,-0.0009,-0.0004,0.003,-0.0003,-0.0003,0.0012,0.0013,0.0014,0.0068,0,0,0,0,0,0,-0.0055,-0.0053,-0.0051,-0.0049,-0.0049,-0.0055,-0.0034,-0.0032,-0.0024,-0.0021,-0.0013,-0.0011,-0.0008,-0.0004,-0.0005,0.0029,-0.0003,0.0011,0.0013,0.0014,0.0065,0.0071,0.0076,0,0,0,0,0,-0.0055,-0.0055,-0.0051,-0.005,-0.0045,-0.0056,-0.0056,-0.0044,-0.0025,-0.0029,-0.0013,-0.001,0.0005,-0.0004,-0.0006,0.0029,0.0011,0.0012,0.0014,0.0063,0.007,0.0076,0,0,0,0,0,0,-0.0059,-0.0053,-0.0047,-0.0045,-0.0051,-0.005,-0.0051,-0.0042,-0.0034,-0.0022,-0.0014,-0.0012,0.0015,0.0002,-0.0008,0.0037,0.0013,0.0014,0.0051,0.0057,0.0062,0.0045,-0.0004,0,0,0,0,0,-0.006,-0.0058,-0.0058,-0.0058,-0.0059,-0.0054,-0.0054,-0.0046,-0.004,-0.0034,-0.002,-0.0004,0.0016,0.002,0.003,0.0037,0.0013,0.0061,0.0066,0.007,0.0055,0.0068,0.0073,0.002,0.002,0.002,0,0,-0.0063,-0.0058,-0.0058,-0.0059,-0.0058,-0.0076,-0.0051,-0.005,-0.0056,-0.0035,-0.0024,0.0014,0.0022,0.0048,0.0058,0.0043,0.0068,0.0072,0.0076,0.0058,0.007,0.0075,0.008,0.0021,0.0021,0.0021,0,0,-0.0077,-0.0062,-0.007,-0.008,-0.0081,-0.0082,-0.0081,-0.007,-0.0054,-0.0042,-0.0011,0.0037,0.0051,0.0075,0.0086,0.0114,0.01,0.0134,0.0141,0.0155,0.0159,0.0163,0.0119,0.0118,0.0132,0.0132,0.0132,0,-0.008,-0.0092,-0.0077,-0.0095,-0.0109,-0.0087,-0.0112,-0.01,-0.0084,-0.0069,-0.0034,0.0036,0.0061,0.0091,0.0126,0.0127,0.0115,0.0121,0.0162,0.0165,0.0168,0.0122,0.0121,0.0134,0.0134,0.0134,0.0134,0,-0.0108,-0.0122,-0.0128,-0.0146,-0.0159,-0.0173,-0.0165,-0.0155,-0.0115,-0.0089,-0.0027,0.0032,0.0074,0.0111,0.0134,0.0179,0.0155,0.0174,0.0147,0.0177,0.0126,0.0124,0.0138,0.0137,0.0137,0.0136,0,0,-0.0108,-0.0142,-0.0146,-0.0176,-0.0188,-0.0207,-0.021,-0.0209,-0.0205,-0.0128,-0.0108,-0.0004,0.0067,0.0083,0.0141,0.0171,0.0201,0.0193,0.0193,0.0148,0.0196,0.0247,0.0248,0.0242,0.0242,0.0243,0.0145,0,-0.0139,-0.0187,-0.0195,-0.0255,-0.0285,-0.0281,-0.0293,-0.0281,-0.0239,-0.021,-0.0107,-0.0047,0.0043,0.0099,0.0147,0.0188,0.02,0.0222,0.0173,0.0169,0.0214,0.0251,0.0244,0.0143,0.0142,0.0142,0.0141,0,-0.0166,-0.02,-0.0257,-0.0318,-0.033,-0.0356,-0.0377,-0.0375,-0.0326,-0.028,-0.0188,-0.011,-0.0023,0.0052,0.0123,0.014,0.0172,0.0197,0.0194,0.022,0.0219,0.0112,0.0136,0.0137,0.0137,0.0137,0.0138,0,-0.0182,-0.0247,-0.0297,-0.0319,-0.0375,-0.0393,-0.0403,-0.0382,-0.038,-0.0299,-0.0276,-0.0167,-0.0107,-0.003,0.008,0.01,0.0127,0.0145,0.0198,0.0197,0.0152,0.0149,0.0171,0.0171,0.0171,0.0171,0.0172,0,-0.0211,-0.0261,-0.0307,-0.0339,-0.0403,-0.0411,-0.0446,-0.0432,-0.0407,-0.0388,-0.0285,-0.0239,-0.0113,-0.006,0.0028,0.0114,0.0086,0.0193,0.0193,0.0173,0.0174,0.0148,0.0147,0.0168,0.0168,0.0169,0.017,0,-0.0223,-0.0258,-0.0325,-0.0385,-0.0413,-0.0439,-0.0486,-0.0498,-0.0458,-0.0435,-0.0399,-0.0314,-0.0205,-0.0116,-0.0021,0.004,0.0116,0.0146,0.0076,0.0073,0.0168,0.0171,0.0163,0.0164,0.0165,0.0166,0.0167,0,-0.0235,-0.0265,-0.0348,-0.0396,-0.0426,-0.0474,-0.0508,-0.0505,-0.0492,-0.0454,-0.0428,-0.0348,-0.0261,-0.0132,-0.0018,0.0095,0.014,0.0121,0.0197,0.0175,0.0175,0.0176,0.0176,0.0169,0.0169,0.017,0.017,0,-0.0253,-0.0273,-0.0325,-0.0401,-0.0458,-0.0521,-0.0539,-0.0547,-0.0509,-0.0518,-0.0421,-0.0326,-0.0234,-0.0099,-0.0013,0.0085,0.011,0.0134,0.0132,0.0204,0.0183,0.0181,0.0181,0.0174,0.0173,0.0173,0.0173,0,-0.0257,-0.0285,-0.0332,-0.04,-0.0488,-0.0516,-0.0539,-0.0515,-0.0509,-0.0451,-0.0422,-0.0306,-0.0254,-0.0106,-0.0011,0.0085,0.0115,0.0123,0.0123,0.0119,0.0176,0.0147,0.0125,0,0,0,0,0,-0.0255,-0.0273,-0.0332,-0.0393,-0.0473,-0.0502,-0.0545,-0.0545,-0.0531,-0.0459,-0.0431,-0.0313,-0.0155,-0.0094,0.0014,0.0014,0.0122,0.0139,0.0129,0.0197,0.0192,0.0278,0,0,0,0,0,0,-0.0257,-0.03,-0.0312,-0.0367,-0.0404,-0.0458,-0.0485,-0.0472,-0.0415,-0.0401,-0.0309,-0.0289,-0.0128,-0.0195,0.0023,0.0048,0.0052,0.0206,0.0208,0.02,0.0195,0.0191,0.0278,0,0,0,0,0]}]]